Mount Airy, NC

4:16 PM EST on December 06, 2019 (GMT -0500)
Mount Airy-Surry County

Weather History for KMWK - October, 2019

Change the Weather History Date:

Sunday, October 20, 2019

  Actual Average (KINT) Record (KINT)
Temperature  
Mean Temperature 62 °F -  
Max Temperature 72 °F 66 °F 84 °F (1984)
Min Temperature 52 °F 46 °F 24 °F (1981)
Degree Days  
Heating Degree Days 3    
Growing Degree Days 12 (Base 50)    
Moisture  
Dew Point 56 °F    
Average Humidity 85    
Maximum Humidity 93    
Minimum Humidity 65    
Precipitation  
Precipitation 0.00 in - - ()
Sea Level Pressure  
Sea Level Pressure 29.89 in    
Wind  
Wind Speed 4 mph ()    
Max Wind Speed 13 mph    
Max Gust Speed 24 mph    
Visibility 8.6 miles    
Events Rain    
Averages and records for this station are not official NWS values.
T = Trace of Precipitation, MM = Missing Value Source: Averaged Metar Reports

Daily Weather History Graph

Daily Weather History Graph

Search for Another Location

Airport or City:

Astronomy

Oct. 20, 2019 Rise Set
Actual Time 7:33 AM EDT 6:39 PM EDT
Civil Twilight 7:07 AM EDT 7:05 PM EDT
Nautical Twilight 6:37 AM EDT 7:35 PM EDT
Astronomical Twilight 6:07 AM EDT 8:05 PM EDT
Moon 11:53 PM EDT (10/20) 1:53 PM EDT (10/20)
Length of Visible Light 11h 58m
Length of Day
11h 06m
Waning Gibbous, 59% of the Moon is Illuminated
Oct 20
Waning Gibbous
Oct 21
Last Quarter
Oct 27
New
Nov 4
First Quarter
Nov 12
Full

Hourly Weather History & Observations

Time (EDT) Temp. Dew Point Humidity Pressure Visibility Wind Dir Wind Speed Gust Speed Precip Events Conditions
12:15 AM 52.2 °F 49.5 °F 91% 29.95 in 7.0 mi NNE 5.8 mph - N/A Rain Rain
12:35 AM 52.2 °F 49.6 °F 91% 29.94 in 10.0 mi NNE 4.6 mph - N/A Rain Rain
12:55 AM 52.2 °F 49.8 °F 92% 29.92 in 7.0 mi NE 8.1 mph - N/A Rain Heavy Rain
1:15 AM 52.2 °F 50.0 °F 92% 29.90 in 7.0 mi NNE 3.5 mph - N/A Rain Rain
1:35 AM 52.3 °F 50.2 °F 92% 29.87 in 7.0 mi NE 8.1 mph - N/A Rain Rain
1:55 AM 53.1 °F 50.9 °F 92% 29.87 in 7.0 mi NE 9.2 mph - N/A Rain Rain
2:15 AM 52.9 °F 50.5 °F 92% 29.87 in 4.0 mi NE 4.6 mph - N/A Rain Heavy Rain
2:35 AM 52.7 °F 50.4 °F 92% 29.86 in 2.5 mi NNE 8.1 mph - N/A Rain Heavy Rain
2:55 AM 52.2 °F 50.0 °F 92% 29.83 in 3.0 mi North 8.1 mph - N/A Rain Heavy Rain
3:15 AM 52.7 °F 50.4 °F 92% 29.85 in 3.0 mi North 3.5 mph - N/A Rain Rain
3:35 AM 53.6 °F 51.3 °F 92% 29.83 in 5.0 mi NE 6.9 mph - N/A Rain Heavy Rain
3:55 AM 53.6 °F 51.4 °F 92% 29.83 in 5.0 mi North 4.6 mph - N/A Rain Heavy Rain
4:15 AM 53.6 °F 51.4 °F 92% 29.82 in 4.0 mi NNE 6.9 mph - N/A Rain Rain
4:35 AM 54.0 °F 51.8 °F 92% 29.82 in 7.0 mi NNE 6.9 mph - N/A Rain Rain
5:15 AM 54.7 °F 52.7 °F 93% 29.81 in 5.0 mi Calm Calm - N/A Rain Rain
5:35 AM 54.7 °F 52.7 °F 93% 29.81 in 7.0 mi NNW 3.5 mph - N/A   Drizzle
6:15 AM 54.7 °F 52.7 °F 93% 29.81 in 5.0 mi NW 3.5 mph - N/A   Drizzle
6:35 AM 54.5 °F 52.5 °F 93% 29.81 in 4.0 mi NW 4.6 mph - N/A Rain Heavy Rain
6:55 AM 54.1 °F 52.2 °F 93% 29.81 in 7.0 mi Calm Calm - N/A   Light Drizzle
7:15 AM 54.1 °F 52.0 °F 92% 29.80 in 7.0 mi NNW 3.5 mph - N/A Rain Light Rain
7:35 AM 54.0 °F 52.0 °F 93% 29.80 in 7.0 mi NW 4.6 mph - N/A   Light Drizzle
7:55 AM 54.0 °F 52.0 °F 93% 29.80 in 7.0 mi NW 4.6 mph - N/A   Mostly Cloudy
8:15 AM 54.1 °F 52.2 °F 93% 29.80 in 10.0 mi NNW 3.5 mph - N/A   Mostly Cloudy
8:35 AM 54.7 °F 52.5 °F 92% 29.81 in 10.0 mi Calm Calm - N/A   Mostly Cloudy
8:55 AM 54.7 °F 52.7 °F 93% 29.82 in 10.0 mi Calm Calm - N/A   Scattered Clouds
9:15 AM 55.4 °F 53.2 °F 92% 29.82 in 10.0 mi Calm Calm - N/A   Mostly Cloudy
9:35 AM 55.9 °F 53.6 °F 92% 29.82 in 7.0 mi Calm Calm - N/A   Mostly Cloudy
9:55 AM 56.5 °F 54.5 °F 93% 29.83 in 7.0 mi Calm Calm - N/A   Mostly Cloudy
10:15 AM 57.4 °F 55.0 °F 92% 29.84 in 10.0 mi Calm Calm - N/A   Mostly Cloudy
10:35 AM 58.6 °F 55.8 °F 90% 29.85 in 10.0 mi Calm Calm - N/A   Mostly Cloudy
10:55 AM 59.9 °F 56.8 °F 90% 29.85 in 10.0 mi Calm Calm - N/A   Mostly Cloudy
11:15 AM 60.8 °F 57.2 °F 88% 29.86 in 10.0 mi Calm Calm - N/A   Mostly Cloudy
11:35 AM 61.7 °F 57.9 °F 87% 29.85 in 10.0 mi Calm Calm - N/A   Mostly Cloudy
11:55 AM 64.0 °F 59.2 °F 84% 29.86 in 10.0 mi WNW 4.6 mph - N/A   Overcast
12:15 PM 64.4 °F 58.1 °F 80% 29.87 in 10.0 mi NW 8.1 mph - N/A   Overcast
12:35 PM 66.2 °F 58.6 °F 77% 29.87 in 10.0 mi NNW 8.1 mph - N/A   Overcast
12:55 PM 66.7 °F 58.5 °F 75% 29.87 in 10.0 mi NNW 11.5 mph 17.3 mph N/A   Mostly Cloudy
1:15 PM 67.5 °F 59.0 °F 74% 29.87 in 10.0 mi North 10.4 mph 16.1 mph N/A   Scattered Clouds
1:35 PM 68.4 °F 59.5 °F 73% 29.86 in 10.0 mi North 12.7 mph 24.2 mph N/A   Clear
1:55 PM 69.8 °F 59.5 °F 70% 29.87 in 10.0 mi North 11.5 mph 16.1 mph N/A   Mostly Cloudy
2:35 PM 70.5 °F 60.1 °F 69% 29.86 in 10.0 mi North 5.8 mph 17.3 mph N/A   Scattered Clouds
3:15 PM 72.1 °F 60.4 °F 67% 29.86 in 10.0 mi NW 9.2 mph - N/A   Clear
3:35 PM 72.5 °F 60.3 °F 65% 29.87 in 10.0 mi NNW 10.4 mph - N/A   Scattered Clouds
3:55 PM 72.5 °F 60.4 °F 66% 29.88 in 10.0 mi NW 9.2 mph - N/A   Mostly Cloudy
4:15 PM 72.5 °F 60.4 °F 66% 29.88 in 10.0 mi North 6.9 mph - N/A   Mostly Cloudy
4:35 PM 71.1 °F 60.4 °F 69% 29.89 in 10.0 mi NNW 4.6 mph - N/A   Mostly Cloudy
4:55 PM 70.7 °F 60.3 °F 69% 29.89 in 10.0 mi NW 3.5 mph - N/A   Mostly Cloudy
5:15 PM 71.1 °F 60.4 °F 69% 29.89 in 10.0 mi Calm Calm - N/A   Scattered Clouds
5:35 PM 70.3 °F 60.1 °F 70% 29.90 in 10.0 mi WNW 3.5 mph - N/A   Clear
5:55 PM 69.3 °F 59.9 °F 72% 29.91 in 10.0 mi Calm Calm - N/A   Scattered Clouds
6:15 PM 69.8 °F 60.1 °F 71% 29.92 in 10.0 mi WNW 4.6 mph - N/A   Mostly Cloudy
6:35 PM 68.4 °F 59.9 °F 74% 29.92 in 10.0 mi WNW 4.6 mph - N/A   Overcast
6:55 PM 66.7 °F 59.4 °F 77% 29.93 in 10.0 mi WNW 4.6 mph - N/A   Mostly Cloudy
7:15 PM 65.8 °F 59.0 °F 79% 29.94 in 10.0 mi NW 4.6 mph - N/A   Mostly Cloudy
7:35 PM 65.1 °F 59.0 °F 81% 29.95 in 10.0 mi NW 4.6 mph - N/A   Mostly Cloudy
7:55 PM 64.8 °F 59.0 °F 82% 29.96 in 10.0 mi Calm Calm - N/A   Scattered Clouds
8:15 PM 63.7 °F 58.5 °F 83% 29.97 in 10.0 mi Calm Calm - N/A   Scattered Clouds
8:35 PM 63.0 °F 58.1 °F 84% 29.97 in 10.0 mi Calm Calm - N/A   Clear
8:55 PM 61.7 °F 57.6 °F 86% 29.99 in 10.0 mi Calm Calm - N/A   Clear
9:15 PM 59.2 °F 56.3 °F 90% 29.99 in 10.0 mi Calm Calm - N/A   Clear
9:35 PM 59.4 °F 56.7 °F 91% 30.00 in 10.0 mi Calm Calm - N/A   Scattered Clouds
9:55 PM 61.2 °F 57.2 °F 87% 30.00 in 10.0 mi NNW 3.5 mph - N/A   Scattered Clouds
10:15 PM 61.9 °F 57.4 °F 85% 30.01 in 10.0 mi NW 3.5 mph - N/A   Clear
10:35 PM 62.2 °F 57.4 °F 84% 30.02 in 10.0 mi NNW 4.6 mph - N/A   Clear
10:55 PM 61.7 °F 57.2 °F 85% 30.02 in 10.0 mi Calm Calm - N/A   Clear
11:15 PM 60.8 °F 56.7 °F 86% 30.02 in 10.0 mi Calm Calm - N/A   Clear
11:35 PM 60.4 °F 56.5 °F 87% 30.02 in 10.0 mi Calm Calm - N/A   Clear
11:55 PM 59.9 °F 56.3 °F 88% 30.03 in 10.0 mi NNW 3.5 mph - N/A   Clear